User: anonymous   Login
Location: Caltech
(34.1382°N, 118.1253°W)
Time: 01:41:19
(UTC-07:00)
Language:

KITSAT 1 - Orbit

View from above orbital plane
View from above orbital plane
View from above satellite
View from above satellite

Ground track
Ground track

The orbit data is extracted from the following two-line orbital elements,

1 22077U 92052B   16180.91849855 -.00000053  00000-0  34454-4 0  9994
2 22077  66.0853 346.5303 0011308 225.2714 288.9184 12.86513762121946
Epoch (UTC): 28 June 2016 22:02:38
Eccentricity: 0.0011308
inclination: 66.0853°
perigee height: 1306 km
apogee height: 1324 km
right ascension of ascending node: 346.5303°
argument of perigee: 225.2714°
revolutions per day: 12.86513762
mean anomaly at epoch: 288.9184°
orbit number at epoch: 12194

The dashed part of the orbit path shows where the satellite is in the earth's shadow,  

DLR